Regional Weather Roundup
Issued by NWS

Home | Current Version | Previous Version | Text Only | Print | Product List | Glossary Off
Versions: 1 2 3 4 5 6 7 8 9 10 11 12 13 14 15 16 17 18 19 20 21 22 23 24 25 26 27 28 29 30 31 32 33 34 35 36 37 38 39 40 41 42 43 44 45 46 47 48 49 50

000
ASUS43 KLOT 250808
RWRIL

ILLINOIS REGIONAL WEATHER ROUNDUP
NATIONAL WEATHER SERVICE CHICAGO/ROMEOVILLE IL
300 AM CDT WED APR 25 2018

NOTE: "FAIR" INDICATES FEW OR NO CLOUDS BELOW 12,000 FEET WITH NO
SIGNIFICANT WEATHER AND/OR OBSTRUCTIONS TO VISIBILITY.

* THESE STATIONS ARE NOT UNDER NWS QUALITY CONTROL. THEY ALSO MAY NOT
  REPORT WEATHER SUCH AS PRECIPITATION OR FOG.

ILZ001-002-007-009-015-016-024-250900-
NORTHWEST ILLINOIS

CITY           SKY/WX    TMP DP  RH WIND       PRES   REMARKS
MOLINE         FAIR      57  38  48 N12G22    30.02R
STERLING*      FAIR      50  44  80 E16       30.05R
SAVANNA*       CLOUDY    53  44  72 NE15G23   30.06S
$$

ILZ003-004-008-010-011-017-018-250900-
NORTH CENTRAL ILLINOIS

CITY           SKY/WX    TMP DP  RH WIND       PRES   REMARKS
ROCKFORD       CLOUDY    47  30  51 NE16      30.09S
FREEPORT*      CLOUDY    47  31  55 NE16G24   30.10R
ROCHELLE*      FAIR      45  33  62 NE15      30.07S
DE KALB*       FAIR      45  32  60 NE17G25   30.06R
PERU*          FAIR      51  45  80 NE16      30.04S
$$

ILZ005-006-012>014-019>023-250900-
NORTHEAST ILLINOIS

CITY           SKY/WX    TMP DP  RH WIND       PRES   REMARKS
CHICAGO-OHARE  CLOUDY    47  29  49 N25G33    30.04R
CHICAGO-MIDWAY CLOUDY    46  33  60 N17G29    30.04S
AURORA         FAIR      46  33  60 NE20      30.04R
LANSING*       CLOUDY    44  38  78 N13       30.03R
JOLIET*        FAIR      49  38  67 N10       30.02S
WAUKEGAN       CLOUDY    43  32  65 N16G29    30.05S
DUPAGE AIRPORT CLOUDY    47  32  56 N16       30.04R
KANKAKEE*      FAIR      47  45  92 N14       30.02R
WHEELING       CLOUDY    47  29  49 N18G31    30.07R
MORRIS*        FAIR      46  37  69 N10       30.02S
ROMEOVILLE*    CLOUDY    47  34  61 NE21G26   30.03S
NORTHERLY ISL    N/A     43  33  68 NW21        N/A
$$

LMZ740>746-250900-
SOUTHERN LAKE MICHIGAN

STATION/POSITION SKY/WX   TEMP    WIND        PRES    VSBY  WAVE
                          AIR SEA DIR/SP/G                  HT/PER
                          (F)     (DEG/KT/KT) (MB)    (MI)  (FT/S)
HARRISON CRIB              42     350/ 23/ 25   N/A
BURNHAM HARBOR             42     340/ 18/ 24   N/A
CALUMET HARBOR             42     330/ 14/ 20 1016.3F
BURNS HARBOR               40     340/  6/  8 1016.9S
MICHIGAN CITY              40     350/  6/  7   N/A
ST. JOSEPH                 42 44  320/ 12/ 17 1016.4          1/ 3
$$

ILZ025>027-034>036-040-047-049-050-058-095>099-250900-
WEST-CENTRAL ILLINOIS

CITY           SKY/WX    TMP DP  RH WIND       PRES   REMARKS
QUINCY         PTCLDY    54  43  66 NW12      30.01S
GALESBURG*     FAIR      52  41  65 N5        30.01S
MACOMB*        PTCLDY    52  41  65 NW14      30.03S
JACKSONVILLE*  PTCLDY    46  34  62 NW8       29.98S
PITTSFIELD*    CLEAR     55  41  59 NW8       30.02R
$$

ILZ028>032-037-038-041>044-048-051>054-059>061-250900-
CENTRAL ILLINOIS

CITY           SKY/WX    TMP DP  RH WIND       PRES   REMARKS
PONTIAC        FAIR      48  48  98 NE10      30.01F FOG
BLOOMINGTON    FAIR      49  47  93 NE13      30.00F
DECATUR        FAIR      45  44  97 CALM      29.96F FOG
PEORIA         FAIR      55  48  77 CALM      29.98F
LACON*         DRIZZLE   51  47  86 NE8       30.01R
LINCOLN*       FAIR      47  47 100 CALM      29.97S FOG
SPRINGFIELD    FAIR      50  48  93 W5        29.97F
TAYLORVILLE    FAIR      49  49 100 S3        29.97S FOG
$$

ILZ033-039-045-046-055>057-062-063-250900-
EAST-CENTRAL ILLINOIS

CITY           SKY/WX    TMP DP  RH WIND       PRES   REMARKS
CHAMPAIGN      FAIR      45  45 100 N8        29.97F FOG
DANVILLE*      FAIR      46  46 100 N9        29.94F FOG
RANTOUL*       FAIR      50  49  96 N9        29.98S
MATTOON        FOG       48  48 100 CALM      29.95F VSB 1/4
PARIS*         FAIR      47  47  99 NW6       29.97S FOG
$$

ILZ079-100>102-250900-
SOUTHWEST ILLINOIS

CITY           SKY/WX    TMP DP  RH WIND       PRES   REMARKS
ALTON          PTCLDY    44  44  99 W3        29.98R
BELLEVILLE     CLEAR     46  45  98 CALM      29.96F FOG
CAHOKIA*       PTCLDY    43  42  97 SW3       29.97F FOG
SPARTA*        CLEAR     46  46 100 CALM      29.98F
$$

ILZ064>066-069>071-074>076-080>082-084>086-088>090-092>094-250900-
SOUTH-CENTRAL ILLINOIS

CITY           SKY/WX    TMP DP  RH WIND       PRES   REMARKS
CARBONDALE     FAIR      46  45  96 CALM      29.97S
CAIRO*         FAIR      51  50  98 W5        29.98F
EFFINGHAM*     FOG       47  47 100 CALM      29.98S VSB 1/4
MARION         FOG      N/A N/A N/A CALM      29.98F VSB 1/2
MT. VERNON       N/A     44  43  96 CALM      29.97S FOG
CENTRALIA*     FOG       47  47 100 CALM      29.96F VSB 1/2
SALEM*         FOG       51  50  95 CALM      29.96F VSB 1/4
METROPOLIS*    FOG       50  50  98 CALM      29.98S VSB 1
$$

ILZ067-068-072-073-078-083-087-091-250900-
SOUTHEAST ILLINOIS

CITY           SKY/WX    TMP DP  RH WIND       PRES   REMARKS
LAWRENCEVILLE  FAIR      50  49  96 MISG      29.95F FOG
FLORA*         FAIR      51  50  95 CALM      29.97F FOG
FAIRFIELD*     FAIR      51  50  93 CALM      29.95F
HARRISBURG*    FAIR      50  50 100 CALM      29.97F FOG
ROBINSON*      FAIR      46  46 100 CALM      29.96F FOG
CARMI*         FAIR      50  50 100 NW6       29.96F FOG
$$

ABBREVIATIONS USED IN REMARKS
   TC - TEMPERATURE IN CELSIUS
  WCI - WIND CHILL INDEX
   HX - HEAT INDEX
  VSB - VISIBILITY
$$




USA.gov is the U.S. government's official web portal to all federal, state and local government web resources and services.